Weather History for KRME - May, 2013

Change the Weather History Date:

Monday, May 20, 2013

  Actual Average Record
Temperature  
Mean Temperature 70 °F -  
Max Temperature 82 °F 70 °F 88 °F (1989)
Min Temperature 59 °F 48 °F 32 °F (1981)
Cooling Degree Days 5    
Growing Degree Days 20 (Base 50)    
Moisture  
Dew Point 59 °F    
Average Humidity 72    
Maximum Humidity 87    
Minimum Humidity 50    
Precipitation  
Precipitation 0.00 in - - ()
Sea Level Pressure  
Sea Level Pressure 30.02 in    
Wind  
Wind Speed 4 mph (SE)    
Max Wind Speed 8 mph    
Max Gust Speed -    
Visibility 10 miles    
Events      
Averages and records for this station are not official NWS values.
T = Trace of Precipitation, MM = Missing Value Source: NWS Daily Summary

Daily Weather History Graph

Daily Weather History Graph

Search for Another Location

Airport or City:

Trip Planner

Search our weather history database for the weather conditions in past years. The results will help you decide how hot, cold, wet, or windy it might be!

Date:

Astronomy

May. 20, 2013 Rise Set
Actual Time 5:32 AM EDT 8:24 PM EDT
Civil Twilight 4:59 AM EDT 8:57 PM EDT
Nautical Twilight 4:16 AM EDT 9:40 PM EDT
Astronomical Twilight 3:27 AM EDT 10:29 PM EDT
Moon 3:21 PM EDT (5/20) 2:34 AM EDT (5/20)
Length of Visible Light 15h 58m
Length of Day
14h 51m
Waxing Gibbous, 75% of the Moon is Illuminated
May 20
Waxing Gibbous
May 25
Full
May 31
Last Quarter
Jun 8
New
Jun 16
First Quarter

Hourly Weather History & Observations

Time (EDT) Temp. Heat Index Dew Point Humidity Pressure Visibility Wind Dir Wind Speed Gust Speed Precip Events Conditions
12:53 AM 59.0 °F - 54.0 °F 83% 30.10 in 10.0 mi ESE 6.9 mph - N/A   Overcast
1:53 AM 59.0 °F - 54.0 °F 83% 30.09 in 10.0 mi East 6.9 mph - N/A   Overcast
2:53 AM 59.0 °F - 54.0 °F 83% 30.07 in 10.0 mi ESE 6.9 mph - N/A   Overcast
3:53 AM 59.0 °F - 55.0 °F 87% 30.06 in 10.0 mi SE 3.5 mph - N/A   Overcast
4:53 AM 59.0 °F - 55.0 °F 87% 30.05 in 10.0 mi Calm Calm - N/A   Overcast
5:53 AM 59.0 °F - 55.0 °F 87% 30.05 in 10.0 mi ESE 5.8 mph - N/A   Overcast
6:53 AM 61.0 °F - 55.9 °F 83% 30.05 in 10.0 mi SE 4.6 mph - N/A   Overcast
7:53 AM 62.1 °F - 57.0 °F 84% 30.07 in 10.0 mi SE 4.6 mph - N/A   Overcast
8:53 AM 64.9 °F - 57.9 °F 78% 30.07 in 10.0 mi South 3.5 mph - N/A   Mostly Cloudy
9:05 AM 66.0 °F - 57.9 °F 75% 30.08 in 10.0 mi Calm Calm - N/A   Scattered Clouds
9:48 AM 66.2 °F - 59.0 °F 78% 30.06 in 10.0 mi South 3.5 mph - N/A   Overcast
10:09 AM 69.1 °F - 59.0 °F 70% 30.06 in 10.0 mi North 4.6 mph - N/A   Mostly Cloudy
10:19 AM 70.0 °F - 59.0 °F 68% 30.05 in 10.0 mi Calm Calm - N/A   Mostly Cloudy
10:29 AM 70.0 °F - 60.1 °F 71% 30.05 in 10.0 mi Calm Calm - N/A   Scattered Clouds
10:36 AM 71.1 °F - 60.1 °F 68% 30.05 in 10.0 mi Calm Calm - N/A   Mostly Cloudy
10:53 AM 70.0 °F - 60.1 °F 71% 30.04 in 10.0 mi West 3.5 mph - N/A   Mostly Cloudy
12:22 PM 73.9 °F - 61.0 °F 64% 30.02 in 10.0 mi Variable 3.5 mph - N/A   Unknown
12:53 PM 75.9 °F - 61.0 °F 60% 30.01 in 10.0 mi Variable 3.5 mph - N/A   Mostly Cloudy
2:53 PM 79.0 °F - 61.0 °F 54% 29.99 in 10.0 mi NE 4.6 mph - N/A   Mostly Cloudy
3:53 PM 80.1 °F 81.2 °F 62.1 °F 54% 29.97 in 10.0 mi SW 4.6 mph - N/A   Clear
4:53 PM 81.0 °F 82.2 °F 63.0 °F 54% 29.96 in 10.0 mi WNW 8.1 mph - N/A   Clear
5:53 PM 81.0 °F 81.7 °F 61.0 °F 50% 29.94 in 10.0 mi Variable 3.5 mph - N/A   Clear
6:53 PM 80.1 °F 81.2 °F 62.1 °F 54% 29.92 in 10.0 mi NW 4.6 mph - N/A   Clear
7:53 PM 77.0 °F - 63.0 °F 62% 29.91 in 10.0 mi ENE 4.6 mph - N/A   Clear
8:53 PM 71.1 °F - 63.0 °F 75% 29.94 in 10.0 mi Calm Calm - N/A   Clear
10:53 PM 68.0 °F - 62.1 °F 81% 29.94 in 10.0 mi East 5.8 mph - N/A   Mostly Cloudy
11:53 PM 66.9 °F - 61.0 °F 81% 29.94 in 10.0 mi SE 4.6 mph - N/A   Clear